Time,TemperatureF,DewpointF,PressureIn,WindDirection,WindDirectionDegrees,WindSpeedMPH,WindSpeedGustMPH,Humidity,HourlyPrecipIn,Conditions,Clouds,dailyrainin,SoftwareType,DateUTC
2013-05-31 00:07:00,67.6,55.0,29.84,SSW,200,0.0,-999.0,65,-99.99,,,0.19,weatherlink.com 1.10,2013-05-31 05:07:00,
2013-05-31 00:22:00,67.7,55.0,29.82,SSW,206,0.0,-999.0,65,-99.99,,,0.20,weatherlink.com 1.10,2013-05-31 05:22:00,
2013-05-31 00:37:00,68.4,57.0,29.80,SW,232,5.0,-999.0,66,-99.99,,,0.20,weatherlink.com 1.10,2013-05-31 05:37:00,
2013-05-31 00:52:00,68.7,57.0,29.80,SW,236,0.0,-999.0,66,-99.99,,,0.20,weatherlink.com 1.10,2013-05-31 05:52:00,
2013-05-31 01:07:00,68.9,57.0,29.80,WSW,237,0.0,-999.0,67,-99.99,,,0.20,weatherlink.com 1.10,2013-05-31 06:07:00,
2013-05-31 01:22:00,69.0,58.0,29.83,SSW,196,1.0,-999.0,67,-99.99,,,0.20,weatherlink.com 1.10,2013-05-31 06:22:00,
2013-05-31 01:37:00,69.2,58.0,29.83,SW,217,18.0,-999.0,67,-99.99,,,0.20,weatherlink.com 1.10,2013-05-31 06:37:00,
2013-05-31 01:52:00,69.1,58.0,29.82,SSW,205,14.0,-999.0,67,-99.99,,,0.00,weatherlink.com 1.10,2013-05-31 06:52:00,
2013-05-31 02:07:00,69.3,58.0,29.83,WSW,248,8.0,-999.0,67,-99.99,,,0.00,weatherlink.com 1.10,2013-05-31 07:07:00,
2013-05-31 02:22:00,69.3,58.0,29.81,SSW,205,5.0,-999.0,67,-99.99,,,0.00,weatherlink.com 1.10,2013-05-31 07:22:00,
2013-05-31 02:37:00,69.3,58.0,29.81,SW,220,10.0,-999.0,67,-99.99,,,0.00,weatherlink.com 1.10,2013-05-31 07:37:00,
2013-05-31 02:52:00,69.4,58.0,29.79,SW,229,14.0,-999.0,67,-99.99,,,0.00,weatherlink.com 1.10,2013-05-31 07:52:00,
2013-05-31 03:07:00,69.4,58.0,29.77,SW,224,9.0,-999.0,67,-99.99,,,0.01,weatherlink.com 1.10,2013-05-31 08:07:00,
2013-05-31 03:22:00,69.4,58.0,29.79,SW,232,3.0,-999.0,67,-99.99,,,0.01,weatherlink.com 1.10,2013-05-31 08:22:00,
2013-05-31 03:37:00,69.3,58.0,29.78,SSW,207,4.0,-999.0,68,-99.99,,,0.01,weatherlink.com 1.10,2013-05-31 08:37:00,
2013-05-31 03:52:00,69.3,58.0,29.78,SW,233,0.0,-999.0,68,-99.99,,,0.01,weatherlink.com 1.10,2013-05-31 08:52:00,
2013-05-31 04:07:00,69.2,58.0,29.78,SSW,202,3.0,-999.0,68,-99.99,,,0.01,weatherlink.com 1.10,2013-05-31 09:07:00,
2013-05-31 04:22:00,69.2,58.0,29.80,SSW,207,5.0,-999.0,68,-99.99,,,0.01,weatherlink.com 1.10,2013-05-31 09:22:00,
2013-05-31 04:37:00,69.0,58.0,29.80,SW,214,12.0,-999.0,68,-99.99,,,0.01,weatherlink.com 1.10,2013-05-31 09:37:00,
2013-05-31 04:52:00,68.8,57.0,29.81,WSW,246,2.0,-999.0,67,-99.99,,,0.01,weatherlink.com 1.10,2013-05-31 09:52:00,
2013-05-31 05:07:00,68.6,57.0,29.79,WSW,248,17.0,-999.0,66,-99.99,,,0.01,weatherlink.com 1.10,2013-05-31 10:07:00,
2013-05-31 05:22:00,68.8,56.0,29.80,WSW,237,8.0,-999.0,65,-99.99,,,0.01,weatherlink.com 1.10,2013-05-31 10:22:00,
2013-05-31 05:37:00,67.4,55.0,29.80,SW,214,5.0,-999.0,64,-99.99,,,0.01,weatherlink.com 1.10,2013-05-31 10:37:00,
2013-05-31 05:52:00,65.9,53.0,29.81,WSW,240,13.0,-999.0,63,-99.99,,,0.01,weatherlink.com 1.10,2013-05-31 10:52:00,
2013-05-31 06:07:00,65.3,53.0,29.81,SW,222,0.0,-999.0,64,-99.99,,,0.01,weatherlink.com 1.10,2013-05-31 11:07:00,
2013-05-31 06:22:00,65.2,53.0,29.81,SW,215,7.0,-999.0,65,-99.99,,,0.01,weatherlink.com 1.10,2013-05-31 11:22:00,
2013-05-31 06:37:00,65.2,53.0,29.81,WSW,239,8.0,-999.0,65,-99.99,,,0.01,weatherlink.com 1.10,2013-05-31 11:37:00,
2013-05-31 06:52:00,65.3,53.0,29.81,SW,236,4.0,-999.0,65,-99.99,,,0.01,weatherlink.com 1.10,2013-05-31 11:52:00,
2013-05-31 07:07:00,65.5,54.0,29.81,WSW,238,2.0,-999.0,66,-99.99,,,0.01,weatherlink.com 1.10,2013-05-31 12:07:00,
2013-05-31 07:22:00,65.9,54.0,29.81,SW,219,12.0,-999.0,66,-99.99,,,0.01,weatherlink.com 1.10,2013-05-31 12:22:00,
2013-05-31 07:37:00,66.6,55.0,29.82,SW,232,7.0,-999.0,66,-99.99,,,0.01,weatherlink.com 1.10,2013-05-31 12:37:00,
2013-05-31 07:52:00,67.0,55.0,29.83,SW,234,5.0,-999.0,66,-99.99,,,0.01,weatherlink.com 1.10,2013-05-31 12:52:00,
2013-05-31 08:07:00,67.6,56.0,29.83,SW,224,0.0,-999.0,66,-99.99,,,0.01,weatherlink.com 1.10,2013-05-31 13:07:00,
2013-05-31 08:22:00,68.4,57.0,29.84,WSW,238,2.0,-999.0,66,-99.99,,,0.01,weatherlink.com 1.10,2013-05-31 13:22:00,
2013-05-31 08:37:00,68.5,56.0,29.84,WSW,257,0.0,-999.0,65,-99.99,,,0.01,weatherlink.com 1.10,2013-05-31 13:37:00,
2013-05-31 08:52:00,68.7,56.0,29.85,SW,231,2.0,-999.0,64,-99.99,,,0.01,weatherlink.com 1.10,2013-05-31 13:52:00,
2013-05-31 09:07:00,68.9,56.0,29.84,West,260,6.0,-999.0,64,-99.99,,,0.01,weatherlink.com 1.10,2013-05-31 14:07:00,
2013-05-31 09:22:00,69.3,56.0,29.84,SW,219,4.0,-999.0,63,-99.99,,,0.01,weatherlink.com 1.10,2013-05-31 14:22:00,
2013-05-31 09:37:00,69.8,57.0,29.84,SW,219,6.0,-999.0,63,-99.99,,,0.01,weatherlink.com 1.10,2013-05-31 14:37:00,
2013-05-31 09:52:00,70.8,57.0,29.84,SSW,195,7.0,-999.0,62,-99.99,,,0.01,weatherlink.com 1.10,2013-05-31 14:52:00,
2013-05-31 10:08:00,71.5,58.0,29.84,SW,217,4.0,-999.0,62,-99.99,,,0.01,weatherlink.com 1.10,2013-05-31 15:08:00,
2013-05-31 10:22:00,72.4,59.0,29.84,South,190,0.0,-999.0,63,-99.99,,,0.01,weatherlink.com 1.10,2013-05-31 15:22:00,
2013-05-31 10:37:00,73.5,61.0,29.84,SSW,198,8.0,-999.0,65,-99.99,,,0.01,weatherlink.com 1.10,2013-05-31 15:37:00,
2013-05-31 10:52:00,73.4,61.0,29.84,SW,219,3.0,-999.0,66,-99.99,,,0.01,weatherlink.com 1.10,2013-05-31 15:52:00,
2013-05-31 11:07:00,74.3,63.0,29.84,WSW,248,0.0,-999.0,68,-99.99,,,0.01,weatherlink.com 1.10,2013-05-31 16:07:00,
2013-05-31 11:22:00,75.3,65.0,29.84,SW,215,0.0,-999.0,70,-99.99,,,0.01,weatherlink.com 1.10,2013-05-31 16:22:00,
2013-05-31 11:37:00,76.3,66.0,29.84,West,281,0.0,-999.0,70,-99.99,,,0.01,weatherlink.com 1.10,2013-05-31 16:37:00,
2013-05-31 11:52:00,76.6,67.0,29.84,SW,225,0.0,-999.0,71,-99.99,,,0.01,weatherlink.com 1.10,2013-05-31 16:52:00,
2013-05-31 12:07:00,76.2,66.0,29.84,SSW,196,3.0,-999.0,71,-99.99,,,0.01,weatherlink.com 1.10,2013-05-31 17:07:00,
2013-05-31 12:22:00,77.3,68.0,29.83,SSW,209,1.0,-999.0,72,-99.99,,,0.01,weatherlink.com 1.10,2013-05-31 17:22:00,
2013-05-31 12:37:00,77.5,67.0,29.84,SW,227,3.0,-999.0,71,-99.99,,,0.01,weatherlink.com 1.10,2013-05-31 17:37:00,
2013-05-31 12:52:00,77.8,68.0,29.84,SW,229,0.0,-999.0,71,-99.99,,,0.01,weatherlink.com 1.10,2013-05-31 17:52:00,
2013-05-31 13:07:00,78.0,68.0,29.83,West,261,0.0,-999.0,71,-99.99,,,0.01,weatherlink.com 1.10,2013-05-31 18:07:00,
2013-05-31 13:22:00,79.3,69.0,29.83,West,265,0.0,-999.0,71,-99.99,,,0.01,weatherlink.com 1.10,2013-05-31 18:22:00,
2013-05-31 13:38:00,79.6,70.0,29.83,SW,217,0.0,-999.0,72,-99.99,,,0.01,weatherlink.com 1.10,2013-05-31 18:38:00,
2013-05-31 13:53:00,78.8,69.0,29.82,SW,219,0.0,-999.0,71,-99.99,,,0.01,weatherlink.com 1.10,2013-05-31 18:53:00,
2013-05-31 14:07:00,80.7,71.0,29.82,SW,215,0.0,-999.0,72,-99.99,,,0.01,weatherlink.com 1.10,2013-05-31 19:07:00,
2013-05-31 14:23:00,81.2,71.0,29.81,SW,223,0.0,-999.0,70,-99.99,,,0.01,weatherlink.com 1.10,2013-05-31 19:23:00,
2013-05-31 14:38:00,80.5,70.0,29.81,WSW,242,0.0,-999.0,71,-99.99,,,0.01,weatherlink.com 1.10,2013-05-31 19:38:00,
2013-05-31 14:53:00,81.0,71.0,29.81,WSW,244,0.0,-999.0,71,-99.99,,,0.01,weatherlink.com 1.10,2013-05-31 19:53:00,
2013-05-31 15:07:00,82.1,72.0,29.80,WSW,241,2.0,-999.0,71,-99.99,,,0.01,weatherlink.com 1.10,2013-05-31 20:07:00,
2013-05-31 15:23:00,82.9,72.0,29.80,WSW,255,0.0,-999.0,70,-99.99,,,0.01,weatherlink.com 1.10,2013-05-31 20:23:00,
2013-05-31 15:38:00,81.7,71.0,29.80,SW,234,0.0,-999.0,70,-99.99,,,0.01,weatherlink.com 1.10,2013-05-31 20:38:00,
2013-05-31 15:53:00,80.8,71.0,29.80,SW,216,2.0,-999.0,71,-99.99,,,0.01,weatherlink.com 1.10,2013-05-31 20:53:00,
2013-05-31 16:08:00,80.7,71.0,29.80,WSW,244,0.0,-999.0,71,-99.99,,,0.01,weatherlink.com 1.10,2013-05-31 21:08:00,
2013-05-31 16:23:00,81.3,71.0,29.80,WSW,254,0.0,-999.0,71,-99.99,,,0.01,weatherlink.com 1.10,2013-05-31 21:23:00,
2013-05-31 16:38:00,81.5,71.0,29.79,SSW,198,2.0,-999.0,70,-99.99,,,0.01,weatherlink.com 1.10,2013-05-31 21:38:00,
2013-05-31 16:53:00,81.5,71.0,29.78,SSW,202,0.0,-999.0,71,-99.99,,,0.01,weatherlink.com 1.10,2013-05-31 21:53:00,
2013-05-31 17:08:00,81.7,71.0,29.79,South,190,0.0,-999.0,70,-99.99,,,0.01,weatherlink.com 1.10,2013-05-31 22:08:00,
2013-05-31 17:23:00,80.5,70.0,29.78,SW,227,0.0,-999.0,71,-99.99,,,0.01,weatherlink.com 1.10,2013-05-31 22:23:00,
2013-05-31 17:38:00,81.0,71.0,29.77,South,183,0.0,-999.0,71,-99.99,,,0.01,weatherlink.com 1.10,2013-05-31 22:38:00,
2013-05-31 17:53:00,80.7,71.0,29.76,South,169,0.0,-999.0,71,-99.99,,,0.01,weatherlink.com 1.10,2013-05-31 22:53:00,
2013-05-31 18:08:00,80.3,70.0,29.76,SSW,211,2.0,-999.0,71,-99.99,,,0.01,weatherlink.com 1.10,2013-05-31 23:08:00,
2013-05-31 18:23:00,79.9,70.0,29.74,SSW,207,0.0,-999.0,71,-99.99,,,0.01,weatherlink.com 1.10,2013-05-31 23:23:00,
2013-05-31 18:38:00,79.6,69.0,29.74,SSW,199,0.0,-999.0,71,-99.99,,,0.01,weatherlink.com 1.10,2013-05-31 23:38:00,
2013-05-31 18:53:00,79.1,69.0,29.73,South,173,10.0,-999.0,71,-99.99,,,0.01,weatherlink.com 1.10,2013-05-31 23:53:00,
2013-05-31 19:08:00,78.5,68.0,29.70,SSW,194,0.0,-999.0,71,-99.99,,,0.01,weatherlink.com 1.10,2013-06-01 00:08:00,
2013-05-31 19:23:00,77.8,68.0,29.68,SSE,160,1.0,-999.0,71,-99.99,,,0.01,weatherlink.com 1.10,2013-06-01 00:23:00,
2013-05-31 19:38:00,77.3,67.0,29.71,SW,217,0.0,-999.0,70,-99.99,,,0.01,weatherlink.com 1.10,2013-06-01 00:38:00,
2013-05-31 19:53:00,77.1,67.0,29.73,SW,218,2.0,-999.0,70,-99.99,,,0.01,weatherlink.com 1.10,2013-06-01 00:53:00,
2013-05-31 20:08:00,77.3,67.0,29.75,SSE,161,0.0,-999.0,70,-99.99,,,0.01,weatherlink.com 1.10,2013-06-01 01:08:00,
2013-05-31 20:23:00,77.1,67.0,29.75,South,180,1.0,-999.0,70,-99.99,,,0.01,weatherlink.com 1.10,2013-06-01 01:23:00,
2013-05-31 20:38:00,77.3,67.0,29.77,SSW,204,6.0,-999.0,70,-99.99,,,0.01,weatherlink.com 1.10,2013-06-01 01:38:00,
2013-05-31 20:53:00,77.1,67.0,29.77,SSW,207,0.0,-999.0,70,-99.99,,,0.01,weatherlink.com 1.10,2013-06-01 01:53:00,
2013-05-31 21:08:00,76.8,66.0,29.78,SW,225,0.0,-999.0,70,-99.99,,,0.01,weatherlink.com 1.10,2013-06-01 02:08:00,
2013-05-31 21:23:00,76.7,66.0,29.78,SW,221,0.0,-999.0,70,-99.99,,,0.01,weatherlink.com 1.10,2013-06-01 02:23:00,
2013-05-31 21:38:00,76.7,66.0,29.78,South,186,0.0,-999.0,70,-99.99,,,0.01,weatherlink.com 1.10,2013-06-01 02:38:00,
2013-05-31 21:53:00,76.2,65.0,29.78,South,184,0.0,-999.0,69,-99.99,,,0.01,weatherlink.com 1.10,2013-06-01 02:53:00,
2013-05-31 22:08:00,75.9,65.0,29.78,South,178,0.0,-999.0,69,-99.99,,,0.01,weatherlink.com 1.10,2013-06-01 03:08:00,
2013-05-31 22:23:00,75.8,64.0,29.80,SW,218,0.0,-999.0,68,-99.99,,,0.01,weatherlink.com 1.10,2013-06-01 03:23:00,
2013-05-31 22:38:00,75.7,64.0,29.80,SSW,205,0.0,-999.0,67,-99.99,,,0.01,weatherlink.com 1.10,2013-06-01 03:38:00,
2013-05-31 22:53:00,75.6,64.0,29.79,SSW,208,0.0,-999.0,67,-99.99,,,0.01,weatherlink.com 1.10,2013-06-01 03:53:00,
2013-05-31 23:08:00,75.5,63.0,29.78,SSW,202,0.0,-999.0,66,-99.99,,,0.01,weatherlink.com 1.10,2013-06-01 04:08:00,
2013-05-31 23:23:00,75.4,63.0,29.79,SW,217,0.0,-999.0,65,-99.99,,,0.01,weatherlink.com 1.10,2013-06-01 04:23:00,
2013-05-31 23:38:00,75.3,63.0,29.79,South,179,0.0,-999.0,65,-99.99,,,0.01,weatherlink.com 1.10,2013-06-01 04:38:00,
2013-05-31 23:53:00,75.2,62.0,29.78,SSW,195,0.0,-999.0,64,-99.99,,,0.01,weatherlink.com 1.10,2013-06-01 04:53:00,